Погода в Порт-Харди

Канада     50°43′05″N   127°29′33″W
темп.,
°C
ветер,
м/с
пор.,
м/с
влажн.,
%
обл.,
%
осадки,
мм/ч
давл.,
гПа
погр.,
м
5 декабря, вс
вс501:00+3сз6867100 0.0 1032774
04:00+3сз6866100 0.0 1033846
07:00+2ссз3571100 0.0 1033566
10:00+2всв0164100 0.0 1034360
13:00+3вюв2261100 0.0 1032498
16:00+2юв3469100 0.1 1030497
19:00+1вюв4587100 0.8 1028499
22:00+1вюв101294100 3.6 1023789
6 декабря, пн
пн601:00+1в111298100 8.6 1020716
04:00+2вюв111499100 14.9 1017676
07:00+2вюв121596100 1.7 1014704
10:00+2вюв121596100 3.9 1013638
13:00+2вюв111495100 2.1 1014660
16:00+3вюв101295100 4.7 1013557
19:00+4вюв91089100 1.1 1013512
22:00+4вюв7989100 1.8 1014457
7 декабря, вт
вт701:00+4вюв7889100 0.3 1014393
04:00+4вюв7890100 0.8 1013348
07:00+4вюв7891100 0.2 1012342
10:00+5вюв7891100 0.4 1011318
13:00+5вюв7894100 0.1 1009319
16:00+5вюв7896100 1.1 1007292
19:00+5ююв3396100 1.8 1006163
22:00+5ююв2297100 3.8 1003130
8 декабря, ср
ср801:00+4ююз4895100 4.9 1002602
04:00+5зсз111569100 9.6 10051565
07:00+4з7117797 0.9 10061067
10:00+3з81281100 2.1 10071101
13:00+4з81272100 0.6 10071285
16:00+3з71180100 1.3 1007904
19:00+3зюз61087100 0.8 1007709
22:00+3зюз5876100 1.8 1007615
9 декабря, чт
чт901:00+3юз5879100 0.4 1007346
04:00+2ююз3496100 1.3 1007235
07:00+3юз239198 1.8 1007225
10:00+3зюз3483100 2.3 1008246
13:00+3ююз3394100 0.4 1009218
16:00+3юз3390100 0.9 1010253
19:00+3зюз338326 0.4 1012233
22:00+2зюз338511 0.4 1014147